When you browse on this site, cookies collect data to enhance your experience and personalize the content and advertising you see.
Visit our Privacy Policy to learn more. By continuing to use the site, you agree to this use of cookies and data.
  • In Deutschland
  • Länderverzeichnis
  • Für 7 Tage
  • Wassertemperatur
  • Wetterkarte
  • Widgets
  • user-avatar
    Anmelden

    Stündliche Wetter Bielefeld

    Heute, 20 August, Dienstag

    Zeit Temperatur Niederschläge Wind Luftdruck Luftfeuchtigkeit
    00:00 +15°C° 0 mm 2 m/S 753 mmHg 76%
    01:00 +15°C° 0 mm 2 m/S 753 mmHg 77%
    02:00 +14°C° 0 mm 2 m/S 754 mmHg 79%
    03:00 +13°C° 0 mm 3 m/S 754 mmHg 81%
    04:00 +12°C° 0 mm 3 m/S 754 mmHg 82%
    05:00 +13°C° 0 mm 3 m/S 754 mmHg 80%
    06:00 +13°C° 0 mm 3 m/S 754 mmHg 78%
    07:00 +14°C° 0 mm 3 m/S 755 mmHg 76%
    08:00 +16°C° 0 mm 3 m/S 755 mmHg 71%
    09:00 +18°C° 0 mm 3 m/S 755 mmHg 67%
    10:00 +19°C° 0 mm 4 m/S 755 mmHg 62%
    11:00 +20°C° 0 mm 3 m/S 755 mmHg 59%
    12:00 +20°C° 0 mm 3 m/S 755 mmHg 55%
    13:00 +21°C° 0 mm 3 m/S 755 mmHg 51%
    14:00 +21°C° 0 mm 3 m/S 756 mmHg 51%
    15:00 +21°C° 0 mm 3 m/S 756 mmHg 50%
    16:00 +22°C° 0 mm 3 m/S 756 mmHg 50%
    17:00 +20°C° 0.1 mm 3 m/S 756 mmHg 55%
    18:00 +19°C° 0.1 mm 2 m/S 756 mmHg 60%
    19:00 +18°C° 0.1 mm 2 m/S 756 mmHg 66%
    20:00 +17°C° 0 mm 2 m/S 756 mmHg 70%
    21:00 +16°C° 0 mm 1 m/S 757 mmHg 75%
    22:00 +15°C° 0 mm 1 m/S 757 mmHg 79%
    23:00 +14°C° 0 mm 1 m/S 758 mmHg 82%

    Morgen, 21 August, Mittwoch

    Zeit Temperatur Niederschläge Wind Luftdruck Luftfeuchtigkeit
    00:00 +14°C° 0 mm 1 m/S 758 mmHg 85%
    01:00 +13°C° 0 mm 1 m/S 758 mmHg 87%
    02:00 +13°C° 0 mm 1 m/S 758 mmHg 89%
    03:00 +12°C° 0 mm 1 m/S 758 mmHg 90%
    04:00 +12°C° 0 mm 1 m/S 759 mmHg 92%
    05:00 +12°C° 0 mm 1 m/S 759 mmHg 90%
    06:00 +13°C° 0 mm 1 m/S 759 mmHg 87%
    07:00 +14°C° 0 mm 1 m/S 759 mmHg 85%
    08:00 +15°C° 0 mm 1 m/S 760 mmHg 76%
    09:00 +18°C° 0 mm 1 m/S 760 mmHg 67%
    10:00 +19°C° 0 mm 2 m/S 760 mmHg 58%
    11:00 +20°C° 0 mm 2 m/S 760 mmHg 53%
    12:00 +21°C° 0 mm 2 m/S 759 mmHg 47%
    13:00 +21°C° 0 mm 2 m/S 759 mmHg 42%
    14:00 +23°C° 0 mm 1 m/S 759 mmHg 41%
    15:00 +23°C° 0 mm 1 m/S 759 mmHg 40%
    16:00 +23°C° 0 mm 1 m/S 759 mmHg 39%
    17:00 +22°C° 0 mm 1 m/S 759 mmHg 44%
    18:00 +21°C° 0 mm 1 m/S 759 mmHg 49%
    19:00 +19°C° 0 mm 1 m/S 758 mmHg 54%
    20:00 +18°C° 0 mm 1 m/S 759 mmHg 56%
    21:00 +16°C° 0 mm 1 m/S 759 mmHg 59%
    22:00 +15°C° 0 mm 1 m/S 759 mmHg 61%
    23:00 +15°C° 0 mm 1 m/S 759 mmHg 62%

    übermorgen, 22 August, Donnerstag

    Zeit Temperatur Niederschläge Wind Luftdruck Luftfeuchtigkeit
    00:00 +14°C° 0 mm 1 m/S 759 mmHg 64%
    01:00 +14°C° 0 mm 1 m/S 759 mmHg 65%
    02:00 +14°C° 0 mm 1 m/S 758 mmHg 67%
    03:00 +13°C° 0 mm 1 m/S 758 mmHg 69%
    04:00 +13°C° 0 mm 1 m/S 758 mmHg 71%
    05:00 +14°C° 0 mm 1 m/S 758 mmHg 71%
    06:00 +15°C° 0 mm 2 m/S 758 mmHg 71%
    07:00 +16°C° 0 mm 2 m/S 758 mmHg 70%
    08:00 +18°C° 0 mm 2 m/S 758 mmHg 64%
    09:00 +20°C° 0 mm 2 m/S 758 mmHg 57%
    10:00 +23°C° 0 mm 2 m/S 758 mmHg 50%
    11:00 +24°C° 0 mm 3 m/S 758 mmHg 47%
    12:00 +25°C° 0 mm 3 m/S 758 mmHg 44%
    13:00 +26°C° 0 mm 3 m/S 758 mmHg 40%
    14:00 +26°C° 0 mm 3 m/S 758 mmHg 40%
    15:00 +26°C° 0 mm 3 m/S 758 mmHg 40%
    16:00 +26°C° 0 mm 3 m/S 757 mmHg 40%
    17:00 +25°C° 0 mm 3 m/S 758 mmHg 46%
    18:00 +23°C° 0 mm 2 m/S 758 mmHg 52%
    19:00 +20°C° 0 mm 2 m/S 758 mmHg 59%
    20:00 +20°C° 0 mm 1 m/S 758 mmHg 62%
    21:00 +19°C° 0 mm 1 m/S 758 mmHg 65%
    22:00 +16°C° 0 mm 0 m/S 759 mmHg 68%
    23:00 +15°C° 0 mm 0 m/S 759 mmHg 70%

    23 August, Freitag

    Zeit Temperatur Niederschläge Wind Luftdruck Luftfeuchtigkeit
    00:00 +15°C° 0 mm 0 m/S 759 mmHg 71%
    01:00 +14°C° 0 mm 0 m/S 759 mmHg 73%
    02:00 +14°C° 0 mm 0 m/S 759 mmHg 75%
    03:00 +14°C° 0 mm 0 m/S 758 mmHg 76%
    04:00 +13°C° 0 mm 0 m/S 758 mmHg 77%
    05:00 +14°C° 0 mm 0 m/S 758 mmHg 75%
    06:00 +15°C° 0 mm 0 m/S 759 mmHg 72%
    07:00 +16°C° 0 mm 0 m/S 759 mmHg 69%
    08:00 +20°C° 0 mm 1 m/S 759 mmHg 62%
    09:00 +22°C° 0 mm 1 m/S 759 mmHg 55%
    10:00 +24°C° 0 mm 1 m/S 759 mmHg 48%
    11:00 +25°C° 0 mm 1 m/S 759 mmHg 45%
    12:00 +26°C° 0 mm 1 m/S 759 mmHg 42%
    13:00 +28°C° 0 mm 1 m/S 758 mmHg 39%
    14:00 +28°C° 0 mm 1 m/S 758 mmHg 38%
    15:00 +28°C° 0 mm 2 m/S 758 mmHg 37%
    16:00 +28°C° 0 mm 2 m/S 757 mmHg 36%
    17:00 +27°C° 0 mm 2 m/S 757 mmHg 43%
    18:00 +25°C° 0 mm 2 m/S 757 mmHg 50%
    19:00 +24°C° 0 mm 3 m/S 757 mmHg 57%
    20:00 +21°C° 0 mm 3 m/S 757 mmHg 59%
    21:00 +20°C° 0 mm 2 m/S 757 mmHg 61%
    22:00 +19°C° 0 mm 2 m/S 757 mmHg 63%
    23:00 +19°C° 0 mm 2 m/S 757 mmHg 64%

    24 August, Samstag

    Zeit Temperatur Niederschläge Wind Luftdruck Luftfeuchtigkeit
    00:00 +18°C° 0 mm 2 m/S 757 mmHg 64%
    01:00 +18°C° 0 mm 2 m/S 757 mmHg 65%
    02:00 +17°C° 0 mm 2 m/S 756 mmHg 66%
    03:00 +17°C° 0 mm 2 m/S 756 mmHg 68%
    04:00 +16°C° 0 mm 2 m/S 755 mmHg 69%
    05:00 +17°C° 0 mm 2 m/S 755 mmHg 69%
    06:00 +17°C° 0 mm 2 m/S 755 mmHg 69%
    07:00 +18°C° 0 mm 2 m/S 755 mmHg 70%
    08:00 +20°C° 0 mm 2 m/S 755 mmHg 64%
    09:00 +23°C° 0 mm 2 m/S 755 mmHg 58%
    10:00 +25°C° 0 mm 3 m/S 755 mmHg 52%
    11:00 +26°C° 0 mm 3 m/S 755 mmHg 48%
    12:00 +27°C° 0 mm 3 m/S 754 mmHg 44%
    13:00 +28°C° 0 mm 3 m/S 754 mmHg 40%
    14:00 +29°C° 0 mm 3 m/S 754 mmHg 39%
    15:00 +29°C° 0 mm 3 m/S 753 mmHg 39%
    16:00 +29°C° 0 mm 3 m/S 753 mmHg 38%
    17:00 +27°C° 0 mm 3 m/S 753 mmHg 45%
    18:00 +26°C° 0 mm 2 m/S 752 mmHg 52%
    19:00 +24°C° 0 mm 2 m/S 752 mmHg 59%
    20:00 +23°C° 0 mm 2 m/S 752 mmHg 61%
    21:00 +21°C° 0 mm 2 m/S 752 mmHg 63%
    22:00 +20°C° 0 mm 2 m/S 752 mmHg 65%
    23:00 +20°C° 0 mm 1 m/S 752 mmHg 66%

    25 August, Sonntag

    Zeit Temperatur Niederschläge Wind Luftdruck Luftfeuchtigkeit
    00:00 +20°C° 0 mm 1 m/S 752 mmHg 66%
    01:00 +20°C° 0 mm 1 m/S 752 mmHg 66%
    02:00 +19°C° 0 mm 1 m/S 752 mmHg 67%
    03:00 +19°C° 0 mm 1 m/S 752 mmHg 68%
    04:00 +19°C° 0 mm 1 m/S 751 mmHg 69%
    05:00 +20°C° 0 mm 1 m/S 751 mmHg 69%
    06:00 +20°C° 0 mm 1 m/S 751 mmHg 68%
    07:00 +21°C° 0 mm 1 m/S 751 mmHg 68%
    08:00 +23°C° 0 mm 1 m/S 752 mmHg 61%
    09:00 +25°C° 0 mm 1 m/S 752 mmHg 55%
    10:00 +25°C° 0 mm 0 m/S 752 mmHg 49%
    11:00 +27°C° 0 mm 0 m/S 752 mmHg 45%
    12:00 +30°C° 0 mm 1 m/S 751 mmHg 42%
    13:00 +31°C° 0 mm 1 m/S 751 mmHg 38%
    14:00 +31°C° 0 mm 1 m/S 751 mmHg 37%
    15:00 +31°C° 0 mm 1 m/S 751 mmHg 36%
    16:00 +31°C° 0 mm 1 m/S 750 mmHg 35%
    17:00 +29°C° 0 mm 2 m/S 750 mmHg 41%
    18:00 +28°C° 0 mm 2 m/S 750 mmHg 47%
    19:00 +26°C° 0 mm 2 m/S 750 mmHg 54%
    20:00 +25°C° 0 mm 2 m/S 751 mmHg 57%
    21:00 +23°C° 0 mm 2 m/S 751 mmHg 61%
    22:00 +21°C° 0 mm 2 m/S 751 mmHg 65%
    23:00 +21°C° 0 mm 1 m/S 751 mmHg 67%
    Mehr zeigen